GW4351 Weather Reports


Display with metric or nautical units.
time (UTC)temp
F
wind
direction
speed
MPH
gust
MPH
rain 1hr
in
rain 24hr
in
rain mn
in
humidity
%
barometer
mb
20260505022059 50 336 1.0 3.0 0.00 0.00 0.00 74 1011.0
20260505021602 50 336 1.0 4.0 0.00 0.00 0.00 73 1010.9
20260505021058 50 336 1.0 5.0 0.00 0.00 0.00 72 1010.9
20260505020558 50 350 1.0 6.0 0.00 0.00 0.00 71 1010.8
20260505020059 51 352 1.0 7.0 0.00 0.00 0.00 71 1011.0
20260505015559 51 360 2.0 10.0 0.00 0.00 0.00 71 1011.1
20260505015101 51 14 2.0 12.0 0.00 0.00 0.00 70 1010.9
20260505014600 51 309 3.0 12.0 0.00 0.00 0.00 69 1010.9
20260505014102 51 328 5.0 11.0 0.00 0.00 0.00 69 1010.8
20260505013558 51 319 5.0 11.0 0.00 0.00 0.00 68 1010.8
20260505013127 52 298 4.0 11.0 0.00 0.00 0.00 67 1010.6
20260505012558 52 339 5.0 13.0 0.00 0.00 0.00 67 1010.7
20260505012100 52 302 5.0 15.0 0.00 0.00 0.00 65 1010.8
20260505011615 52 309 8.0 15.0 0.00 0.00 0.00 64 1010.7
20260505011058 53 319 5.0 14.0 0.00 0.00 0.00 63 1010.6
20260505010601 54 344 6.0 15.0 0.00 0.00 0.00 61 1010.7
20260505010115 55 306 7.0 15.0 0.00 0.00 0.00 58 1010.6
20260505005559 57 316 4.0 11.0 0.00 0.00 0.00 56 1010.5
20260505005059 57 346 1.0 7.0 0.00 0.00 0.00 55 1010.2
20260505004603 57 331 2.0 7.0 0.00 0.00 0.00 54 1010.3
20260505004058 58 5 1.0 6.0 0.00 0.00 0.00 53 1010.2
20260505003601 58 344 1.0 5.0 0.00 0.00 0.00 52 1010.2
20260505003104 58 355 0.0 6.0 0.00 0.00 0.00 52 1010.1
20260505002558 58 324 3.0 8.0 0.00 0.00 0.00 52 1010.1
20260505002058 58 277 4.0 8.0 0.00 0.00 0.00 51 1010.1
20260505001559 59 293 2.0 4.0 0.00 0.00 0.00 50 1010.1
20260505001058 59 314 2.0 9.0 0.00 0.00 0.00 51 1010.0
20260505000559 59 5 3.0 9.0 0.00 0.00 0.00 52 1009.8
20260505000109 58 19 2.0 6.0 0.00 0.00 0.00 54 1009.8
20260504235559 57 15 2.0 5.0 0.00 0.00 0.00 57 1009.9
20260504235102 57 336 2.0 5.0 0.00 0.00 0.00 58 1010.0
20260504234604 57 327 2.0 5.0 0.00 0.00 0.00 58 1010.1
20260504234102 57 347 2.0 5.0 0.00 0.00 0.00 58 1010.0
20260504233558 57 320 2.0 5.0 0.00 0.00 0.00 55 1009.9
20260504233108 58 341 2.0 5.0 0.00 0.00 0.00 56 1009.8
20260504232559 58 325 2.0 3.0 0.00 0.00 0.00 54 1009.9
20260504232059 58 335 0.0 3.0 0.00 0.00 0.00 54 1009.9
20260504231601 58 0 0.0 4.0 0.00 0.00 0.00 54 1009.7
20260504231058 58 0 1.0 4.0 0.00 0.00 0.00 57 1009.9
20260504230601 58 325 1.0 12.0 0.00 0.00 0.00 55 1009.9
20260504230107 59 351 0.0 12.0 0.00 0.00 0.00 62 1009.8
20260504225559 60 235 4.0 12.0 0.00 0.00 0.00 50 1010.0
20260504225058 60 261 2.0 8.0 0.00 0.00 0.00 44 1009.8
20260504224559 60 266 4.0 12.0 0.00 0.00 0.00 45 1009.9
20260504224059 60 271 5.0 12.0 0.00 0.00 0.00 46 1010.0
20260504223559 60 268 7.0 14.0 0.00 0.00 0.00 45 1009.9
20260504223104 60 262 9.0 14.0 0.00 0.00 0.00 45 1010.1
20260504222601 61 263 5.0 9.0 0.00 0.00 0.00 43 1010.0
20260504222058 61 277 3.0 6.0 0.00 0.00 0.00 42 1009.7
20260504221603 62 331 2.0 8.0 0.00 0.00 0.00 41 1009.4
20260504221058 63 20 2.0 8.0 0.00 0.00 0.00 40 1009.1
20260504220558 63 360 2.0 9.0 0.00 0.00 0.00 40 1008.7
20260504220100 64 337 3.0 11.0 0.00 0.00 0.00 41 1008.5
20260504215559 64 71 3.0 11.0 0.00 0.00 0.00 42 1008.3
20260504215058 64 355 3.0 17.0 0.00 0.00 0.00 39 1008.2
20260504214614 64 49 7.0 17.0 0.00 0.00 0.00 39 1008.3
20260504214058 64 34 7.0 16.0 0.00 0.00 0.00 40 1008.6
20260504213558 64 49 10.0 20.0 0.00 0.00 0.00 41 1008.7
20260504213116 65 5 10.0 23.0 0.00 0.00 0.00 38 1008.6
20260504212559 66 352 10.0 23.0 0.00 0.00 0.00 36 1008.9
20260504212100 69 36 9.0 23.0 0.00 0.00 0.00 34 1008.8
20260504211559 69 346 12.0 22.0 0.00 0.00 0.00 33 1008.9
20260504211059 70 349 9.0 22.0 0.00 0.00 0.00 36 1008.9
20260504210559 65 12 10.0 20.0 0.00 0.00 0.00 39 1008.8
20260504205559 61 26 9.0 20.0 0.00 0.00 0.00 45 1009.0
20260504205101 62 343 6.0 19.0 0.00 0.00 0.00 42 1009.2
20260504204606 64 5 9.0 19.0 0.00 0.00 0.00 35 1009.4
20260504204058 67 48 7.0 19.0 0.00 0.00 0.00 30 1009.4
20260504203601 69 319 3.0 15.0 0.00 0.00 0.00 27 1009.2
20260504203107 72 105 6.0 15.0 0.00 0.00 0.00 26 1008.7
20260504202558 70 175 5.0 14.0 0.00 0.00 0.00 29 1008.5
20260504202059 69 134 5.0 17.0 0.00 0.00 0.00 30 1008.4
20260504201621 68 217 7.0 17.0 0.00 0.00 0.00 28 1008.3
20260504201058 68 178 6.0 13.0 0.00 0.00 0.00 29 1008.3
20260504200559 68 159 4.0 15.0 0.00 0.00 0.00 29 1008.5
20260504200111 69 188 8.0 26.0 0.00 0.00 0.00 27 1008.5
20260504195603 70 214 8.0 26.0 0.00 0.00 0.00 23 1008.3
20260504195059 71 286 5.0 11.0 0.00 0.00 0.00 25 1008.3
20260504194612 72 317 5.0 11.0 0.00 0.00 0.00 24 1008.2
20260504194059 73 327 4.0 9.0 0.00 0.00 0.00 22 1008.1
20260504193559 73 295 2.0 12.0 0.00 0.00 0.00 19 1007.9
20260504193113 73 261 3.0 12.0 0.00 0.00 0.00 19 1008.0
20260504192558 74 275 6.0 12.0 0.00 0.00 0.00 18 1007.9
20260504192104 73 266 4.0 11.0 0.00 0.00 0.00 19 1007.8
20260504191608 72 261 7.0 11.0 0.00 0.00 0.00 18 1007.8
20260504191059 72 311 4.0 12.0 0.00 0.00 0.00 19 1007.8
20260504190559 71 273 4.0 12.0 0.00 0.00 0.00 20 1008.0
20260504190116 72 268 6.0 13.0 0.00 0.00 0.00 20 1007.9
20260504185600 71 272 6.0 13.0 0.00 0.00 0.00 21 1008.0
20260504185059 72 277 10.0 17.0 0.00 0.00 0.00 20 1008.0
20260504184626 73 271 10.0 17.0 0.00 0.00 0.00 20 1008.0
20260504184059 74 293 9.0 17.0 0.00 0.00 0.00 19 1008.1
20260504183602 74 264 10.0 17.0 0.00 0.00 0.00 21 1008.2
20260504183100 73 287 9.0 17.0 0.00 0.00 0.00 23 1008.3
20260504182559 73 291 12.0 18.0 0.00 0.00 0.00 24 1008.3
20260504182101 73 330 13.0 18.0 0.00 0.00 0.00 24 1008.4
20260504181603 71 265 11.0 17.0 0.00 0.00 0.00 24 1008.6
20260504181102 71 283 11.0 17.0 0.00 0.00 0.00 24 1008.7
20260504180604 71 281 9.0 19.0 0.00 0.00 0.00 25 1008.7
20260504175559 70 245 10.0 18.0 0.00 0.00 0.00 25 1008.8
20260504175059 71 239 11.0 19.0 0.00 0.00 0.00 26 1008.9
20260504174602 71 279 12.0 20.0 0.00 0.00 0.00 26 1009.0
20260504174102 70 267 12.0 21.0 0.00 0.00 0.00 27 1009.1
20260504173559 69 251 13.0 21.0 0.00 0.00 0.00 27 1009.2
20260504173101 69 284 12.0 21.0 0.00 0.00 0.00 27 1009.3
20260504172601 69 292 10.0 19.0 0.00 0.00 0.00 28 1009.5
20260504172100 68 283 10.0 19.0 0.00 0.00 0.00 28 1009.6
20260504171613 67 287 12.0 19.0 0.00 0.00 0.00 28 1009.6
20260504171102 67 275 9.0 15.0 0.00 0.00 0.00 29 1009.7
20260504170603 66 271 9.0 15.0 0.00 0.00 0.00 29 1009.8
20260504160106 64 281 6.0 16.0 0.00 0.00 0.00 30 1009.7
20260504151058 63 286 7.0 11.0 0.00 0.00 0.00 29 1009.8
20260504150558 63 284 7.0 11.0 0.00 0.00 0.00 29 1009.8
20260504141058 60 272 7.0 9.0 0.00 0.00 0.00 28 1010.0
20260504140558 59 261 5.0 8.0 0.00 0.00 0.00 29 1010.0
20260504140112 58 260 4.0 8.0 0.00 0.00 0.00 31 1009.9
20260504130602 46 0 0.0 1.0 0.00 0.00 0.00 57 1009.9
20260504120120 44 133 0.0 1.0 0.00 0.00 0.00 56 1009.6
20260504110559 45 0 0.0 1.0 0.00 0.00 0.00 54 1009.6
20260504110107 44 0 0.0 2.0 0.00 0.00 0.00 55 1009.7
20260504100559 44 0 0.0 2.0 0.00 0.00 0.00 53 1010.1
20260504100105 44 135 0.0 2.0 0.00 0.00 0.00 53 1010.1
20260504090106 44 42 0.0 2.0 0.00 0.00 0.00 52 1010.3
20260504081558 46 0 0.0 1.0 0.00 0.00 0.00 48 1010.7
20260504081058 47 0 0.0 2.0 0.00 0.00 0.00 48 1010.8
20260504080605 47 0 0.0 3.0 0.00 0.00 0.00 47 1010.8
20260504060106 51 0 0.0 6.0 0.00 0.00 0.00 42 1011.7
20260504050601 55 324 3.0 6.0 0.00 0.00 0.00 33 1011.7
20260504050107 56 315 2.0 12.0 0.00 0.00 0.00 32 1011.7
20260504045559 58 322 3.0 12.0 0.00 0.00 0.00 31 1011.7
20260504045101 58 23 2.0 6.0 0.00 0.00 0.00 32 1011.7
20260504044601 60 275 2.0 4.0 0.00 0.00 0.00 30 1011.3
20260504044058 60 294 2.0 7.0 0.00 0.00 0.00 30 1011.2
20260504043558 60 277 2.0 7.0 0.00 0.00 0.00 30 1011.3
20260504043116 61 277 1.0 7.0 0.00 0.00 0.00 29 1011.2
20260504042559 61 295 2.0 7.0 0.00 0.00 0.00 30 1011.3
20260504042058 61 279 4.0 7.0 0.00 0.00 0.00 30 1011.4
20260504041559 61 269 3.0 8.0 0.00 0.00 0.00 30 1011.4
20260504041057 61 269 4.0 10.0 0.00 0.00 0.00 30 1011.5
20260504040600 61 277 3.0 10.0 0.00 0.00 0.00 29 1011.6
20260504040103 62 286 3.0 9.0 0.00 0.00 0.00 29 1011.5
20260504035601 62 278 4.0 9.0 0.00 0.00 0.00 29 1011.5
20260504035102 62 279 4.0 10.0 0.00 0.00 0.00 29 1011.7
20260504034559 63 254 5.0 10.0 0.00 0.00 0.00 28 1011.6
20260504034058 63 265 4.0 9.0 0.00 0.00 0.00 28 1011.7
20260504033559 63 279 5.0 9.0 0.00 0.00 0.00 28 1011.6
20260504033116 63 264 2.0 7.0 0.00 0.00 0.00 29 1011.6
20260504032601 63 207 2.0 8.0 0.00 0.00 0.00 28 1011.7
20260504032059 64 240 3.0 8.0 0.00 0.00 0.00 28 1011.7
20260504031605 64 198 2.0 8.0 0.00 0.00 0.00 27 1011.7
20260504031101 64 246 2.0 8.0 0.00 0.00 0.00 27 1011.7
20260504030602 64 265 3.0 10.0 0.00 0.00 0.00 26 1011.6
20260504030100 65 271 4.0 10.0 0.00 0.00 0.00 26 1011.5
20260504025600 65 265 5.0 10.0 0.00 0.00 0.00 26 1011.5
20260504025058 65 250 4.0 11.0 0.00 0.00 0.00 26 1011.5
20260504024603 65 270 4.0 11.0 0.00 0.00 0.00 25 1011.5
20260504024105 65 248 6.0 11.0 0.00 0.00 0.00 25 1011.5
20260504023559 65 267 5.0 9.0 0.00 0.00 0.00 25 1011.5
20260504023101 65 263 5.0 9.0 0.00 0.00 0.00 25 1011.3
20260504022601 65 264 5.0 9.0 0.00 0.00 0.00 25 1011.4